Regional Weather Roundup
Issued by NWS

Home | Current Version | Previous Version | Graphics & Text | Print | Product List | Glossary On
Versions: 1 2 3 4 5 6 7 8 9 10 11 12 13 14 15 16 17 18 19 20 21 22 23 24 25 26 27 28 29 30 31 32 33 34 35 36 37 38 39 40 41 42 43 44 45 46 47 48
000
ASUS45 KSLC 260710
RWRUT

UTAH REGIONAL WEATHER ROUNDUP
NATIONAL WEATHER SERVICE SALT LAKE CITY UT
100 AM MDT SUN APR 26 2015

UTZ001>011-023>025-260800-

NORTHERN UTAH

CITY           SKY/WX    TMP DP  RH WIND       PRES   REMARKS
BRIGHAM CITY   CLOUDY    44  42  90 NW12      29.75R
HILL AFB       LGT RAIN  43  43 100 W8        29.73S
LOGAN          LGT RAIN  45  40  82 N6        29.73S
OGDEN          LGT RAIN  43  43 100 W7        29.73S
PROVO AIRPORT  CLOUDY    43  37  81 CALM      29.75S
SALT LAKE CITY RAIN      43  40  89 W12       29.74S
VERNAL         CLOUDY    42  39  89 E5        29.74S
WENDOVER       PTCLDY    45  27  49 NW9       29.81R
HEBER CITY     MIX PCPN  37  36  93 CALM      29.72F
WEST JORDAN    CLOUDY    41  39  93 W5        29.76R

$$

UTZ012>022-026-027-260800-

SOUTHERN/CENTRAL UTAH

CITY           SKY/WX    TMP DP  RH WIND       PRES   REMARKS
BLANDING       CLOUDY    42  40  95 S3        29.85S
BRYCE CANYON   CLOUDY    29  27  92 CALM      29.79R
CEDAR CITY     CLOUDY    39  36  89 CALM      29.78S
DELTA          CLOUDY    40  40  97 NW5       29.77R
HANKSVILLE     MOCLDY    46  41  81 CALM      29.73S
MILFORD        LGT RAIN  41  27  57 NE5       29.78S
MOAB/CYNLANDS  MOCLDY    47  46  97 SE6       29.70F
PRICE          CLOUDY    42  38  85 CALM      29.72S
ST GEORGE      CLOUDY    48  43  81 S3        29.78R
KANAB          MOCLDY    41  41 100 CALM      29.80S

$$

REGIONAL REPORTS     COLORADO/ARIZONA

CITY           SKY/WX    TMP DP  RH WIND       PRES   REMARKS
CRAIG, CO      CLOUDY    43  37  79 E14G23    29.76F
GRAND JUNCTION CLOUDY    45  44  97 NW6       29.73S
RIFLE          CLOUDY    44  41  89 CALM      29.76F
MONTROSE       CLOUDY    45  39  79 E5        29.79S
CORTEZ         CLOUDY    44  41  89 S3        29.79F
PAGE, AZ       CLOUDY    50  39  66 CALM      29.74F
GRAND CANYON   CLOUDY    36  35  96 CALM      29.80S
KINGMAN        CLOUDY    46  43  89 CALM      29.78F
FLAGSTAFF      LGT SNOW  33  33 100 CALM      29.80S FOG

$$

REGIONAL REPORTS    NEVADA/IDAHO/WYOMING

CITY           SKY/WX    TMP DP  RH WIND       PRES   REMARKS
LAS VEGAS, NV  MOCLDY    57  39  51 NW16G25   29.75S
ELY            CLOUDY    36  30  79 N8        29.86R WCI  30
ELKO           CLOUDY    37  30  75 W8        29.91R WCI  31
POCATELLO, ID  LGT RAIN  40  39  97 SW14      29.81R WCI  32
BURLEY         CLOUDY    40  30  67 W16G25    29.82R WCI  31
EVANSTON, WY   LGT RAIN  35  34  96 N6        29.72F VSB 1/2 WCI  30
ROCK SPRINGS   CLOUDY    42  33  70 SE13      29.74S
KEMMERER       CLOUDY    36  34  93 N9        29.74S WCI  29

$$



USA.gov is the U.S. government's official web portal to all federal, state and local government web resources and services.